Presure
132 113 127 118 170 118 165 170 162 171 135 166 166 184 185 145 141 183 159 171 172 196 206 205 195 189 190 185 198 203 136 113 129 118 125 128 174 162 154 192 164 190 178 179 188 191 191 193 194
139 121 153 143 157 161 122 160 173 134 176 165 174 174 155 144 173 177 155 167 149 166 176 192 169 198 195 199 195 192 192 195 200 199 209 212 191 176 188 202 210 211 182 163 163 166 175 177 179
103 176 153 152 172 156 169 172 156 170 177 182 175 171 172 178 177 177 175 182 182 184 182 169 168 187 199 191 195 195 181 198 191 196 197 205 198 219 198 206 209 191 214 203 200 203 204 175 161
118 96 115 159 174 162 159 163 176 126 166 175 175 165 169 161 171 175 183 179 177 187 182 201 179 177 184 184 184 185 186 198 199 187 185 206 202 206 208 198 187 194 205 205 201 201 192 194 194
127 137 175 172 172 175 177 175 110 179 170 181 172 174 167 166 159 172 174 171 175 184 178 186 195 188 182 192 203 199 190 184 195 184 197 191 215 199 206 206 183 184 207 183 205 190 202 205 199
190 175 106 142 117 171 159 183 181 160 180 162 175 173 180 168 173 162 185 166 173 181 185 192 191 192 188 191 206 209 202 196 195 193 191 207 201 204 206 206 201 201 200 198 205 202 204 203 201
197 190 177 172 181 171 154 195 169 180 176 179 173 175 175 169 176 165 185 176 172 181 196 186 180 181 198 196 194 190 189 189 177 191 183 210 194 208 198 201 199 206 191 196 181 193 202 195 195
178 178 162 185 162 192 154 174 178 184 149 174 186 182 171 176 169 171 180 170 174 163 183 182 185 189 211 203 188 197 197 192 194 191 188 191 200 216 205 199 200 200 188 200 198 200 199 201 190
177 159 184 181 177 178 161 159 171 176 169 180 172 176 176 178 177 166 170 186 176 170 173 171 184 175 200 190 203 203 201 190 182 188 191 187 191 181 204 193 197 204 195 200 197 201 174 205 198
171 160 179 180 181 179 187 155 180 168 168 177 178 181 171 166 174 172 177 172 178 180 178 173 171 181 178 200 201 194 196 197 200 195 189 187 170 193 177 193 186 195 199 177 184 188 186 193 204
175 173 173 175 177 178 178 178 182 167 182 188 188 167 182 184 180 160 183 171 186 177 174 193 174 180 184 185 204 187 179 197 197 197 198 180 193 188 182 179 190 179 173 175 175 187 178 135 184
165 170 177 176 174 180 176 160 167 168 188 168 184 177 181 177 179 182 180 182 183 179 164 171 168 165 188 182 205 191 186 196 197 144 189 177 184 174 188 183 175 168 163 165 151 177 177 174 195
166 191 168 170 180 187 163 181 157 162 181 187 170 179 179 177 181 179 179 180 172 174 178 176 170 174 174 181 191 189 200 179 195 158 193 137 154 155 187 167 173 169 195 181 192 194 167 184 173
174 190 164 169 201 192 166 182 181 162 191 183 179 180 178 178 165 170 169 175 179 175 179 184 187 184 190 189 194 203 197 199 197 212 189 168 173 173 152 163 171 153 169 158 164 156 172 167 164
197 144 195 180 195 192 150 184 180 166 171 177 185 183 178 167 164 175 189 177 182 182 192 192 181 189 193 195 200 197 206 196 187 185 209 210 202 193 194 171 196 156 145 145 173 174 204 157 126
183 147 189 185 187 189 184 181 186 179 178 177 183 184 167 174 171 178 183 191 167 182 192 179 176 180 185 177 181 184 189 189 190 195 193 202 201 211 206 186 170 176 190 170 165 148 149 171 184
190 178 173 183 188 183 186 180 182 178 178 169 169 179 168 174 174 177 177 175 182 177 192 189 215 186 212 207 198 204 195 187 199 214 209 204 201 203 206 215 212 218 190 207 219 171 165 162 162
186 186 172 190 175 182 177 170 179 177 169 170 170 172 179 165 177 168 170 177 186 190 181 193 214 199 197 213 223 220 216 205 201 201 205 212 208 208 202 192 204 162 215 223 225 233 223 186 166
171 162 169 189 180 180 174 170 177 171 172 179 180 181 187 173 183 172 180 197 172 181 188 180 196 211 201 221 220 219 217 211 213 209 201 202 203 200 203 205 214 206 204 221 224 230 238 240 181
171 176 181 178 181 170 186 178 181 173 175 177 181 179 190 197 173 188 183 188 178 185 183 191 203 201 188 204 216 215 211 220 224 151 221 225 221 216 213 203 207 214 211 216 216 230 165 144 231
174 169 174 185 165 167 172 185 185 177 180 182 171 181 176 183 193 197 199 197 185 179 199 193 196 197 201 207 225 214 204 213 212 179 229 208 218 229 228 229 231 235 215 214 226 217 218 229 222
172 174 172 177 177 191 164 178 180 165 192 186 186 165 195 186 165 170 166 178 176 188 187 197 197 201 203 212 221 223 219 205 216 216 205 206 208 80 217 211 215 216 223 228 231 226 229 237 240
181 183 178 176 174 161 145 157 158 169 179 173 177 169 168 179 181 171 171 171 211 183 195 213 207 210 212 207 224 224 225 223 245 236 241 105 223 125 234 233 176 230 232 155 241 246 236 251 255
140 173 177 178 184 180 173 157 153 168 174 163 160 180 177 170 168 179 179 210 204 204 204 198 205 214 214 222 228 231 253 305 307 316 329 325 329 329 326 139 279 253 281 253 323 301 324 326 330
169 181 181 179 168 179 166 175 167 166 168 188 196 179 186 187 180 187 197 210 212 203 206 208 208 227 227 231 229 283 298 299 307 321 328 334 333 326 336 231 218 328 342 343 348 344 244 345 197
182 180 178 182 188 180 179 187 185 193 186 166 179 166 169 183 181 188 205 209 213 215 219 218 216 214 215 227 296 310 310 313 312 233 307 308 208 296 295 303 315 313 340 200 329 339 326 295 289
190 154 163 188 174 183 166 173 165 172 174 192 168 189 187 189 187 204 208 217 191 204 205 209 212 223 236 286 280 173 310 298 290 292 293 158 295 266 295 288 281 107 307 290 289 288 282 280 275
180 191 169 168 167 191 163 195 170 173 166 170 173 191 189 190 190 205 209 218 212 96 213 224 224 240 263 295 298 297 289 286 285 277 278 205 274 285 290 283 284 282 276 274 272 257 270 263 261
170 166 176 187 191 170 168 169 163 167 185 186 184 192 190 197 195 211 218 205 203 173 228 240 239 255 302 292 295 292 284 279 283 272 323 310 296 300 296 291 277 274 256 255 268 253 245 259 171
174 174 184 165 170 182 192 187 163 169 144 199 204 185 199 201 196 228 216 222 217 234 242 241 248 250 300 282 282 290 285 282 293 319 307 301 295 305 302 281 262 282 252 254 246 254 245 247 249
Wind_Speed
52 42 57 45 44 44 42 32 47 43 50 47 50 41 34 58 53 38 56 54 53 43 44 43 48 55 57 60 55 52 52 52 55 58 61 61 64 65 65 58 67 59 64 63 59 58 57 56 55
55 60 50 49 51 48 58 41 40 49 42 52 45 44 40 45 51 48 57 54 57 60 54 45 49 48 52 51 56 55 53 53 49 51 48 46 56 63 59 51 48 48 58 65 64 63 62 61 60
36 45 53 43 49 47 49 39 52 46 45 40 44 47 44 47 47 48 49 47 50 49 51 60 60 52 52 55 57 55 58 52 51 50 48 47 49 43 52 47 45 51 43 47 51 46 44 52 61
63 41 61 50 51 49 61 49 53 47 52 47 47 51 51 58 50 50 50 50 52 53 55 51 56 56 55 57 59 58 56 55 54 53 54 48 48 44 45 48 55 49 46 47 50 48 52 50 50
64 63 45 51 53 47 59 54 49 52 53 47 55 40 53 54 63 52 51 53 55 54 56 53 51 55 55 57 58 58 58 58 54 57 50 50 46 47 45 44 55 54 43 54 44 50 47 44 46
55 52 49 47 59 50 61 55 55 60 52 57 55 48 43 55 54 57 50 58 56 53 53 53 53 55 56 57 52 51 53 54 52 53 51 45 46 47 45 42 42 43 42 42 42 44 43 42 43
56 52 53 54 52 49 58 50 58 55 50 56 57 52 43 62 51 56 49 51 56 54 48 51 54 56 52 55 57 58 57 57 57 55 54 44 46 45 45 43 43 41 47 44 54 44 42 43 40
58 55 59 53 64 49 61 51 52 51 51 55 51 48 46 57 56 54 51 52 55 62 49 51 54 51 45 48 55 55 54 57 53 57 56 48 42 40 42 42 41 41 47 42 42 42 42 43 44
63 58 60 59 57 49 59 59 56 55 59 55 55 54 50 52 54 59 57 49 56 59 53 55 53 56 41 49 45 49 52 57 58 57 53 55 48 48 40 43 40 40 43 42 41 40 52 43 44
67 63 61 67 60 55 59 62 51 58 60 58 57 55 56 54 56 60 58 54 53 57 53 57 59 51 55 50 46 46 48 49 51 54 55 54 51 48 48 46 44 43 41 42 41 39 40 40 40
68 69 65 69 69 62 62 61 62 55 56 54 58 57 58 56 59 67 57 58 57 54 57 60 60 57 54 53 51 52 52 48 50 50 52 60 53 51 53 51 48 44 42 41 45 49 42 45 41
67 66 64 67 74 72 66 63 57 57 54 59 56 57 54 60 62 61 60 58 59 58 66 59 66 69 59 57 57 53 55 48 48 46 45 55 56 57 51 54 50 44 40 43 57 55 50 45 42
68 70 64 63 69 69 62 69 65 60 56 57 59 58 56 60 63 60 61 60 58 60 60 63 66 67 63 63 62 57 55 59 47 54 48 68 54 57 60 58 49 39 47 55 52 52 39 47 43
72 70 64 66 65 65 67 66 63 62 56 58 56 58 55 64 60 58 61 64 67 69 68 69 70 71 73 70 68 65 62 59 57 53 56 64 59 56 60 63 58 52 50 49 42 49 39 44 47
72 71 69 68 65 63 72 64 62 63 67 63 59 57 54 65 60 60 69 63 66 67 72 72 67 69 72 72 71 68 66 63 64 64 58 59 61 65 67 73 70 66 61 60 48 51 59 53 47
76 73 70 66 63 65 63 66 62 61 65 64 63 62 54 67 60 63 68 74 61 72 76 71 70 73 76 69 70 72 71 72 73 75 71 70 64 61 65 71 69 71 77 73 69 64 66 58 50
77 68 66 69 66 64 65 68 63 59 61 67 70 65 61 69 66 69 67 64 71 68 76 75 75 72 73 74 71 74 72 74 73 74 80 82 81 75 71 72 72 73 81 75 72 75 71 67 65
81 77 70 71 61 66 65 72 70 66 64 65 80 69 74 61 75 67 66 72 79 80 74 77 75 73 74 72 71 71 73 75 73 71 73 74 76 81 79 75 77 72 75 76 75 74 79 79 68
84 62 68 77 71 69 68 76 73 71 70 72 81 78 79 68 84 71 77 85 70 79 81 75 83 80 78 78 77 76 77 77 77 75 76 77 78 81 82 83 88 85 81 89 77 78 81 80 80
87 85 83 73 71 64 72 75 79 77 77 82 80 80 86 84 69 84 81 84 75 82 81 84 87 85 78 82 83 82 80 80 84 62 85 87 87 88 90 86 87 90 88 88 82 85 72 61 78
92 80 85 82 71 63 70 77 81 80 81 79 78 84 80 85 86 87 89 90 83 79 94 90 90 91 90 88 87 87 86 87 87 74 90 83 88 91 92 94 94 97 88 85 88 82 80 78 77
91 91 83 85 84 76 66 71 77 72 81 81 88 76 85 84 67 75 71 81 80 91 88 96 94 96 96 96 95 92 92 90 93 95 87 84 86 18 90 88 89 91 92 92 91 87 87 89 90
94 91 92 89 86 65 71 65 77 74 76 77 82 85 83 89 91 83 81 81 100 93 99 101 102 102 102 99 102 100 98 97 99 99 100 37 99 46 102 103 70 100 99 66 99 101 97 99 102
76 91 95 93 92 83 91 82 76 79 81 66 73 90 89 89 87 91 92 101 101 102 102 102 103 106 105 107 106 104 101 94 91 89 88 89 88 87 88 50 100 107 101 91 94 89 92 90 86
87 97 98 95 87 91 82 89 85 82 85 95 91 87 92 97 97 101 106 107 106 104 105 104 105 110 108 108 106 98 91 87 84 81 78 72 68 65 60 47 41 63 59 62 61 62 58 47 54
100 98 96 101 102 95 92 94 95 95 96 85 91 78 89 101 99 104 112 110 109 111 111 110 108 108 108 110 97 83 81 75 71 63 71 66 51 53 51 47 48 50 43 49 46 44 38 40 44
96 78 91 102 94 98 86 97 85 94 94 101 87 98 100 104 105 113 113 110 106 108 107 107 110 113 112 101 77 51 70 69 72 71 67 52 55 51 48 45 48 53 31 34 33 32 36 38 44
97 100 97 95 86 102 83 98 97 93 87 93 96 104 106 108 109 114 112 109 109 35 111 112 113 111 111 85 74 71 70 69 70 69 67 52 54 47 44 43 32 32 36 39 36 46 34 43 46
97 93 100 102 100 95 88 96 84 97 109 109 106 108 110 112 111 120 110 110 110 84 113 110 109 109 80 76 69 67 68 70 71 68 54 51 51 45 39 36 36 38 40 42 35 42 47 45 46
111 109 105 88 102 110 107 105 104 94 73 114 115 104 114 114 111 114 112 112 112 114 110 110 110 109 74 69 71 65 68 69 68 53 48 47 46 41 39 39 39 30 39 37 44 42 45 44 47
Wind_Direction
280 290 290 294 286 292 284 288 285 278 288 278 279 286 288 279 281 283 274 276 275 296 288 283 278 277 277 273 282 282 276 276 277 278 276 275 272 271 271 272 273 272 273 275 275 275 276 276 278
278 292 287 291 284 283 297 280 281 279 278 277 283 283 281 280 280 282 280 280 275 275 276 289 278 281 282 284 283 280 280 283 285 283 285 287 274 271 273 274 273 272 271 273 274 275 275 276 277
277 293 282 277 283 288 280 278 279 279 287 284 278 280 281 289 286 287 282 290 288 292 288 276 277 286 289 287 285 284 276 289 281 286 284 284 276 276 273 272 270 271 271 269 270 271 273 275 276
288 264 293 286 280 285 278 280 277 286 278 281 278 284 277 279 285 288 293 289 286 291 286 288 284 282 286 284 282 284 284 289 286 283 280 285 277 275 271 269 270 272 272 271 271 270 270 270 274
278 279 284 281 280 283 281 282 270 282 277 287 278 278 278 279 279 286 290 289 291 293 288 288 289 285 285 286 283 283 283 283 283 281 285 283 280 277 272 271 269 271 271 270 273 274 274 275 276
288 286 289 286 291 277 282 284 282 283 280 279 281 279 286 278 281 282 290 282 285 290 292 292 291 292 288 289 281 279 280 281 280 282 283 282 281 278 272 269 267 266 267 269 271 272 274 274 276
290 286 280 279 284 280 283 290 282 283 285 278 278 280 281 277 282 281 287 286 285 294 295 291 289 289 288 284 284 286 284 284 284 283 283 279 279 276 274 271 269 271 267 264 269 269 272 271 272
288 285 279 288 278 294 278 282 284 284 287 283 288 287 276 281 279 282 286 283 283 282 290 297 291 289 290 285 287 282 280 282 280 283 285 283 283 284 276 273 273 272 268 272 269 272 271 269 268
291 284 290 287 282 283 279 279 281 283 283 287 282 283 283 283 283 279 281 289 286 282 286 286 286 285 298 287 286 281 279 284 286 285 284 286 287 284 285 272 277 276 276 275 277 273 272 273 270
289 285 291 288 287 286 292 277 284 281 285 290 290 289 282 279 286 283 284 282 285 285 287 281 281 286 282 309 294 288 284 281 281 280 283 284 284 282 286 278 276 277 272 268 275 273 273 275 277
288 289 292 291 288 288 287 287 287 280 289 290 286 284 290 292 289 278 291 284 291 282 283 297 283 288 292 296 300 282 280 284 282 280 280 287 276 278 283 280 279 279 274 276 278 280 271 268 272
286 287 282 283 285 285 285 275 278 280 291 282 288 287 293 289 288 290 290 292 291 290 278 281 282 279 295 289 301 284 280 282 283 273 279 285 276 277 272 271 272 267 265 266 266 273 276 276 272
286 283 281 279 281 283 278 285 276 277 290 288 284 292 292 289 291 293 295 297 287 288 293 292 285 288 286 289 295 288 288 279 273 274 266 270 270 267 273 262 263 260 264 268 272 273 265 272 272
285 286 279 281 284 285 279 286 284 279 289 286 287 288 290 286 281 289 289 295 297 294 292 292 294 294 296 295 295 291 288 283 280 274 262 269 266 258 262 261 258 253 256 249 245 250 255 262 270
285 272 283 282 288 286 276 288 283 283 288 287 287 287 287 280 281 291 296 294 296 298 300 297 295 297 295 295 291 291 288 283 278 276 275 268 259 258 255 259 255 261 260 260 244 248 254 252 256
286 274 286 286 288 285 288 286 287 286 289 289 290 291 284 287 285 295 297 297 285 300 300 294 293 295 295 289 290 292 290 289 290 288 284 280 272 265 257 253 260 263 253 258 253 257 261 239 231
285 286 282 286 288 289 289 287 287 286 288 289 285 293 284 293 295 294 295 293 286 292 296 296 294 290 288 285 282 280 278 279 278 274 274 274 274 274 271 267 262 265 252 252 253 255 254 252 250
285 288 288 288 287 287 289 289 288 287 284 288 288 292 291 287 292 290 292 297 296 297 296 299 298 293 292 293 288 284 281 279 278 277 277 274 272 272 274 271 274 258 265 267 262 262 253 248 246
285 281 289 286 289 286 284 285 284 289 288 289 285 290 287 289 291 291 295 295 294 297 299 296 300 299 296 297 292 288 285 284 282 277 275 275 274 273 273 274 273 272 271 271 266 266 264 256 249
285 286 286 285 283 282 280 281 282 287 290 287 290 290 288 289 286 293 296 296 297 297 298 299 299 298 293 297 296 292 289 285 280 280 275 273 270 270 271 272 271 269 269 268 267 265 261 248 258
281 285 284 284 278 282 285 280 281 284 283 287 293 291 291 293 293 294 294 295 298 299 298 298 298 297 296 296 295 291 289 288 286 278 278 276 275 274 273 271 271 269 268 268 269 266 262 257 255
277 280 283 281 276 278 281 282 281 284 283 286 287 284 288 293 290 294 290 297 298 298 297 297 297 297 297 297 295 291 288 288 286 284 280 278 276 275 274 271 270 270 270 271 271 268 267 268 264
272 276 277 278 280 278 274 277 284 291 288 290 288 292 293 296 295 296 297 297 296 298 297 297 296 297 297 294 295 292 291 288 286 282 279 275 279 280 275 274 267 272 273 272 272 271 269 269 269
268 276 275 278 276 280 279 276 287 289 284 284 285 287 293 294 294 297 296 299 296 295 295 295 296 297 295 296 294 293 293 289 286 283 279 277 277 275 274 283 270 269 270 266 268 267 267 267 266
273 272 274 276 274 276 281 282 283 282 290 285 286 292 291 292 294 297 300 298 296 295 295 296 296 297 297 295 296 298 295 293 290 287 286 285 284 284 280 271 275 267 268 264 262 260 254 256 264
269 271 274 272 270 275 278 278 279 281 282 290 293 290 292 294 295 297 300 297 296 295 296 296 297 297 297 298 303 297 292 290 289 280 289 289 285 282 279 272 267 269 263 254 256 248 238 247 247
266 271 268 270 277 274 280 279 283 283 287 285 294 291 292 294 296 300 297 296 298 297 296 297 296 298 299 307 299 296 291 290 289 290 290 272 288 278 277 271 268 262 252 253 239 241 241 248 255
273 264 275 278 275 270 278 277 284 288 289 290 292 291 292 292 294 297 295 295 294 284 297 298 298 300 308 302 296 293 291 289 287 290 290 284 281 278 271 264 256 247 248 243 246 252 253 252 259
272 276 274 270 272 278 279 284 287 289 286 287 289 289 290 291 292 297 297 293 295 296 299 299 300 306 300 297 295 292 288 288 287 289 283 281 280 275 261 249 251 251 251 253 246 250 255 260 252
271 273 270 275 276 273 273 278 283 288 280 285 286 289 289 290 292 296 295 297 295 299 300 301 305 307 299 294 294 290 287 288 289 289 282 278 274 265 237 237 244 232 246 250 253 254 254 259 264